Regional Weather Roundup
Issued by NWS Kansas City/Pleasant Hill, MO

Home | Current Version | Previous Version | Graphics & Text | Print | Product List | Glossary Off
Versions: 1 2 3 4 5 6 7 8 9 10 11 12 13 14 15 16 17 18 19 20 21 22 23 24 25 26 27 28 29 30 31 32 33 34 35 36 37 38 39 40 41 42 43 44 45 46 47 48 49 50

000
ASUS43 KEAX 290410
RWREAX

WEATHER ROUNDUP FOR EASTERN KANSAS AND NORTHWEST MISSOURI
NATIONAL WEATHER SERVICE KANSAS CITY/PLEASANT HILL MO
1100 PM CDT SAT MAR 28 2015

KSZ040-057-103>105-MOZ028-029-037-043-290500-
...KANSAS CITY METROPOLITAN AREA...

CITY           SKY/WX    TMP DP  RH WIND       PRES   REMARKS
K.C. INTL      CLEAR     43  30  60 SE17G26   30.09F
K.C. DOWNTOWN  CLEAR     46  30  53 SE8G18    30.11F
LEES SUMMIT    CLEAR     41  31  67 SE7       30.13S
OLATHE - IXD   CLEAR     41  32  70 SE15      30.10F WCI  33
OLATHE - OJC   CLEAR     41  31  67 SE14      30.10F WCI  33
LAWRENCE       CLEAR     42  32  67 SE13      30.10F

$$

MOZ001>008-011>017-020>025-030>033-038>040-044>046-053-054-290500-
...NORTHERN AND CENTRAL MISSOURI...

CITY           SKY/WX    TMP DP  RH WIND       PRES   REMARKS
ST. JOSEPH     CLEAR     43  32  65 S10       30.09F
MOSBY            N/A     43  32  65 SE8       30.12F
WARRENSBURG    CLEAR     39  32  75 SE10G17   30.16F WCI  32
WHITEMAN AFB   CLEAR     40  31  72 SE12      30.15F WCI  33
CLINTON        CLEAR     39  34  81 SE10      30.17F WCI  32
SEDALIA        CLEAR     40  31  70 SE10      30.18S WCI  33
WARSAW         NOT AVBL
MARSHALL       CLEAR     41  34  75 SE8       30.18F
CHILLICOTHE      N/A     42  30  62 SE9       30.15F
MOBERLY        CLEAR     37  23  56 SE9       30.20S WCI  31
KIRKSVILLE     CLEAR     34  25  69 SE9       30.18F WCI  27

$$

MOZ041-047>049-056>058-063>065-088>090-097-290500-
...EASTERN AND SOUTHERN MISSOURI...

CITY           SKY/WX    TMP DP  RH WIND       PRES   REMARKS
ST. LOUIS INTL CLEAR     38  19  46 SE10      30.29S WCI  31
SPIRIT OF STL  CLEAR     38  19  46 SE7       30.27S WCI  33
COLUMBIA       CLEAR     36  30  79 S7        30.21R WCI  30
JEFFERSON CITY CLEAR     39  30  70 SE6       30.23S WCI  35
MEXICO         CLEAR     37  28  70 SE9       30.22S WCI  31
HANNIBAL       CLEAR     37  18  44 SE6       30.23S WCI  33
ROLLA          CLEAR     35  29  78 S9        30.20F WCI  28
LEBANON        CLEAR     36  32  87 SE12      30.20S WCI  27
OSAGE BEACH    CLEAR     37  28  70 SE7       30.21S WCI  32
SPRINGFIELD    CLEAR     37  31  78 SE17      30.16S WCI  27
BRANSON        CLEAR     34  32  93 SE14      30.21R WCI  24
NEVADA         CLEAR     39  32  75 SE12      30.15F WCI  32
JOPLIN         CLEAR     42  32  67 SE9       30.12S
WEST PLAINS    MOCLDY    34  29  82 SE6       30.26S WCI  29

$$

IAZ060-094-KSZ022-034>040-054-083-096-NEZ052-066-093-290500-
...KANSAS...SOUTHEAST NEBRASKA AND IOWA...

CITY           SKY/WX    TMP DP  RH WIND       PRES   REMARKS
TOPEKA         CLEAR     45  32  60 SE15      30.08F
MANHATTAN      CLEAR     48  36  63 SE9       30.01F
EMPORIA        CLEAR     46  37  71 SE17      30.04F
CHANUTE        CLEAR     45  37  73 SE15      30.08F
WICHITA        CLEAR     57  40  52 SE16      29.99F
OMAHA          CLEAR     44  32  62 SE16      29.99F
LINCOLN        CLEAR     47  33  58 S22G29    29.95F
FALLS CITY     CLEAR     38  30  73 SE10      30.04F WCI  31
LAMONI         CLEAR     38  27  64 SE12      30.09F WCI  30
DES MOINES     CLEAR     39  22  50 SE14      30.09F WCI  31

$$




USA.gov is the U.S. government's official web portal to all federal, state and local government web resources and services.